User: anonymous   Login
Location: Oshawa
(43.9000°N, 78.8670°W)
Time: 11:25:42
(UTC-04:00)
Language:

Cosmos 1805 Rocket - Orbit

View from above orbital plane
View from above orbital plane
View from above satellite
View from above satellite

Ground track
Ground track

The orbit data is extracted from the following two-line orbital elements,

1 17192U 86097B   17229.07925271  .00000083  00000-0  72393-5 0  9994
2 17192  82.5063 199.3546 0015358 259.9364 154.1923 14.83510778657707
Epoch (UTC): 17 August 2017 01:54:07
Eccentricity: 0.0015358
inclination: 82.5063°
perigee height: 607 km
apogee height: 629 km
right ascension of ascending node: 199.3546°
argument of perigee: 259.9364°
revolutions per day: 14.83510778
mean anomaly at epoch: 154.1923°
orbit number at epoch: 65770

The dashed part of the orbit path shows where the satellite is in the earth's shadow,  

DLR